Regional Weather Roundup
Issued by NWS Lake Charles, LA

Home | Current Version | Previous Version | Text Only | Print | Product List | Glossary On
Versions: 1 2 3 4 5 6 7 8 9 10 11 12 13 14 15 16 17 18 19 20 21 22 23 24 25 26 27 28 29 30 31 32 33 34 35 36 37 38 39 40 41 42 43 44 45 46 47 48 49 50
000
ASUS44 KLCH 240310
RWRLCH
REGIONAL WEATHER ROUNDUP
NATIONAL WEATHER SERVICE LAKE CHARLES LA
1000 PM CDT SAT JUL 23 2016

Note: "fair" indicates few or no clouds below 12,000 feet with no
significant weather and/or obstructions to visibility.


ACROSS SOUTHEAST TEXAS

CITY           SKY/WX    TMP DP  RH WIND       PRES   REMARKS
BEAUMONT       LGT RAIN  78  75  90 S5        29.94R
BEAUMONT CITY  FAIR      82  75  80 CALM      29.95R
ORANGE         PTCLDY    80  75  86 CALM      29.96R
JASPER         CLEAR     81  75  81 CALM      29.97R
$$

ACROSS CENTRAL LOUISIANA

CITY           SKY/WX    TMP DP  RH WIND       PRES   REMARKS
LEESVILLE      CLOUDY    86  78  76 S6        29.95R
FULLERTON      FAIR      82  78  88 CALM      29.93R
ALEXANDRIA INT PTCLDY    84  76  76 CALM      29.93R
ESLER FIELD    PTCLDY    81  79  94 SE3       29.95R
DERIDDER       FAIR      84  78  82 CALM      29.97R
OAKDALE        PTCLDY    81  80  98 CALM      29.95R
OPELOUSAS      FAIR      81  77  90 E12       29.96R
$$

ACROSS SOUTHWEST AND SOUTH CENTRAL LOUISIANA

CITY           SKY/WX    TMP DP  RH WIND       PRES   REMARKS
SULPHUR        CLOUDY    83  77  82 CALM      29.96R
LAKE CHARLES   PTCLDY    82  76  81 CALM      29.95R
CHENNAULT INT  NOT AVBL
CAMERON PHI    CLEAR     86  77  74 S7        29.95R
DEQUINCY       FAIR      81  76  83 CALM      29.96R
JENNINGS       FAIR      84  75  74 CALM      29.96R
LAFAYETTE      PTCLDY    84  79  85 CALM      29.96R
NEW IBERIA     MOCLDY    81  78  91 S3        29.97R
ABBEVILLE      FAIR      81  79  94 S5        29.96R
PATTERSON      PTCLDY    80  79  96 NE3       29.98R
SALT POINT       N/A     84  78  82 CALM      29.96R
$$

SELECTED SITES ACROSS THE REGION

CITY           SKY/WX    TMP DP  RH WIND       PRES   REMARKS
HOUSTON BUSH   PTCLDY    87  74  64 S6        29.92R
HOUSTON HOBBY  PTCLDY    84  76  76 S7        29.92R
GALVESTON      PTCLDY    85  78  80 S12       29.94R
COLLEGE STAT   CLEAR     89  73  59 SE12      29.91R
CONROE         CLEAR     84  75  74 SE6       29.93R
HUNTSVILLE     CLEAR     90  73  57 VRB5      29.92R
LUFKIN         CLEAR     84  75  74 CALM      29.94R
SHREVEPORT     LGT RAIN  78  76  93 VRB3      29.95S
MONROE         CLOUDY    79  74  84 CALM      29.96F
NATCHEZ MS     CLOUDY    81  72  74 SE6       29.97S
BATON ROUGE    PTCLDY    79  74  84 CALM      29.97R
N.O. INTL ARPT PTCLDY    84  75  74 W3        29.97R
SLIDELL        PTCLDY    81  78  91 CALM      29.96R
$$

MARINE REPORTS

STATION/POSITION TIME  SKY/WX   TEMP    WIND        PRES    VSBY
                                AIR SEA DIR/SP/G
                 (UTC)          (F)     (DEG/KT/KT) (MB)    (MI)
BUOY 30 S HIGH I 0250            87 89  180/ 12/ 12 1013.7R
WVE H/P(F/S)=  1/ 5

SEA RIM ST PARK  0300            86     180/  7/  9 1014.6R
PORT ARTHUR      0200               90                N/A
SABINE PASS N    0200            85 92                N/A
TEXAS POINT      NOT AVBL
CALCASIEU PASS   0200            87 90                N/A
LK CHARLES BEACH 0200            87 90                N/A
MARSH ISLAND     0200            88                   N/A
FRESH WATER LOCK 0200            86 89                N/A
AMERADA PASS     0200            83 88                N/A
$$



USA.gov is the U.S. government's official web portal to all federal, state and local government web resources and services.